User: anonymous   Login
Location: Theydon Bois
(51.6750°N, 0.1050°E)
Time: 21:22:53
(UTC+01:00)
Language:

Cosmos 1538 Rocket - Orbit

View from above orbital plane
View from above orbital plane
View from above satellite
View from above satellite

Ground track
Ground track

The orbit data is extracted from the following two-line orbital elements,

1 14760U 84019B   17290.91988381 +.00000014 +00000-0 +13635-4 0  9993
2 14760 074.0422 256.6980 0026591 086.1274 274.2918 14.35834260760985
Epoch (UTC): 17 October 2017 22:04:37
Eccentricity: 0.0026591
inclination: 74.0422°
perigee height: 753 km
apogee height: 791 km
right ascension of ascending node: 256.6980°
argument of perigee: 86.1274°
revolutions per day: 14.35834260
mean anomaly at epoch: 274.2918°
orbit number at epoch: 76098

The dashed part of the orbit path shows where the satellite is in the earth's shadow,  

DLR